| time (UTC) | temp F | wind direction | speed MPH | gust MPH | rain 1hr in | rain 24hr in | rain mn in | humidity % | barometer mb |
| 20260502152016 | 60 | 33 | 11.0 | 19.0 | 0.00 | 0.21 | 0.00 | 71 | 1022.9 |
| 20260502151527 | 59 | 53 | 13.0 | 19.0 | 0.00 | 0.21 | 0.00 | 69 | 1022.8 |
| 20260502151014 | 59 | 67 | 12.0 | 19.0 | 0.00 | 0.21 | 0.00 | 71 | 1022.8 |
| 20260502150616 | 59 | 56 | 12.0 | 19.0 | 0.00 | 0.21 | 0.00 | 70 | 1022.8 |
| 20260502130543 | 49 | 32 | 9.0 | 13.0 | 0.00 | 0.28 | 0.00 | 90 | 1021.6 |
| 20260502123544 | 47 | 30 | 7.0 | 12.0 | 0.00 | 0.46 | 0.00 | 94 | 1021.2 |
| 20260502123048 | 46 | 24 | 8.0 | 12.0 | 0.00 | 0.46 | 0.00 | 94 | 1021.1 |
| 20260502122538 | 46 | 28 | 9.0 | 11.0 | 0.00 | 0.46 | 0.00 | 94 | 1021.0 |
| 20260502122038 | 46 | 21 | 8.0 | 12.0 | 0.00 | 0.46 | 0.00 | 95 | 1021.1 |
| 20260502121538 | 46 | 26 | 8.0 | 12.0 | 0.00 | 0.46 | 0.00 | 95 | 1020.9 |
| 20260502121037 | 46 | 28 | 8.0 | 12.0 | 0.00 | 0.46 | 0.00 | 95 | 1020.8 |
| 20260502120537 | 46 | 24 | 9.0 | 12.0 | 0.00 | 0.46 | 0.00 | 95 | 1020.7 |
| 20260502115536 | 46 | 42 | 7.0 | 12.0 | 0.00 | 0.62 | 0.00 | 95 | 1020.4 |
| 20260502115034 | 46 | 29 | 8.0 | 12.0 | 0.00 | 0.62 | 0.00 | 95 | 1020.5 |
| 20260502114534 | 46 | 20 | 8.0 | 12.0 | 0.00 | 0.62 | 0.00 | 95 | 1020.4 |
| 20260502114032 | 46 | 29 | 7.0 | 10.0 | 0.00 | 0.62 | 0.00 | 95 | 1020.4 |
| 20260502113532 | 46 | 42 | 5.0 | 11.0 | 0.00 | 0.62 | 0.00 | 95 | 1020.4 |
| 20260502113032 | 46 | 20 | 5.0 | 11.0 | 0.00 | 0.62 | 0.00 | 95 | 1020.3 |
| 20260502112530 | 46 | 28 | 8.0 | 13.0 | 0.00 | 0.62 | 0.00 | 95 | 1020.3 |
| 20260502112030 | 46 | 17 | 10.0 | 13.0 | 0.00 | 0.62 | 0.00 | 95 | 1020.0 |
| 20260502111529 | 46 | 28 | 9.0 | 12.0 | 0.00 | 0.62 | 0.00 | 95 | 1019.9 |
| 20260502111030 | 46 | 30 | 7.0 | 12.0 | 0.00 | 0.62 | 0.00 | 95 | 1019.8 |
| 20260502110528 | 46 | 34 | 8.0 | 12.0 | 0.00 | 0.62 | 0.00 | 95 | 1019.7 |
| 20260502110028 | 46 | 21 | 8.0 | 12.0 | 0.00 | 0.62 | 0.00 | 95 | 1019.7 |
| 20260502105532 | 46 | 24 | 10.0 | 14.0 | 0.00 | 0.62 | 0.00 | 96 | 1019.7 |
| 20260502105026 | 46 | 28 | 10.0 | 14.0 | 0.00 | 0.62 | 0.00 | 96 | 1019.6 |
| 20260502104531 | 46 | 26 | 8.0 | 12.0 | 0.00 | 0.62 | 0.00 | 96 | 1019.7 |
| 20260502104025 | 46 | 28 | 8.0 | 13.0 | 0.00 | 0.62 | 0.00 | 96 | 1019.7 |
| 20260502103527 | 46 | 39 | 9.0 | 13.0 | 0.00 | 0.62 | 0.00 | 96 | 1019.6 |
| 20260502103025 | 46 | 24 | 10.0 | 12.0 | 0.00 | 0.62 | 0.00 | 96 | 1019.7 |
| 20260502102529 | 46 | 22 | 9.0 | 12.0 | 0.00 | 0.62 | 0.00 | 96 | 1019.6 |
| 20260502102024 | 46 | 36 | 9.0 | 13.0 | 0.00 | 0.62 | 0.00 | 96 | 1019.5 |
| 20260502101523 | 46 | 33 | 10.0 | 13.0 | 0.00 | 0.62 | 0.00 | 96 | 1019.5 |
| 20260502101021 | 46 | 23 | 10.0 | 14.0 | 0.00 | 0.62 | 0.00 | 96 | 1019.5 |
| 20260502100522 | 46 | 19 | 10.0 | 13.0 | 0.00 | 0.62 | 0.00 | 96 | 1019.4 |
| 20260502091515 | 47 | 22 | 7.0 | 11.0 | 0.00 | 0.75 | 0.00 | 96 | 1018.8 |
| 20260502091015 | 47 | 29 | 8.0 | 13.0 | 0.00 | 0.75 | 0.00 | 96 | 1018.8 |
| 20260502090512 | 47 | 33 | 9.0 | 13.0 | 0.00 | 0.75 | 0.00 | 95 | 1018.7 |
| 20260502071058 | 48 | 40 | 12.0 | 19.0 | 0.00 | 0.83 | 0.00 | 94 | 1017.4 |
| 20260502070557 | 48 | 38 | 12.0 | 19.0 | 0.00 | 0.83 | 0.00 | 94 | 1017.5 |
| 20260502070059 | 48 | 19 | 12.0 | 17.0 | 0.00 | 0.83 | 0.00 | 94 | 1017.7 |
| 20260502065555 | 48 | 23 | 10.0 | 17.0 | 0.00 | 0.85 | 0.00 | 93 | 1017.7 |
| 20260502065055 | 48 | 10 | 10.0 | 16.0 | 0.00 | 0.85 | 0.00 | 93 | 1017.7 |
| 20260502064606 | 48 | 32 | 11.0 | 19.0 | 0.00 | 0.85 | 0.00 | 92 | 1017.6 |
| 20260502064053 | 48 | 45 | 13.0 | 19.0 | 0.00 | 0.85 | 0.00 | 92 | 1017.6 |
| 20260502063553 | 48 | 40 | 12.0 | 18.0 | 0.00 | 0.85 | 0.00 | 92 | 1017.5 |
| 20260502063057 | 48 | 44 | 12.0 | 19.0 | 0.00 | 0.85 | 0.00 | 92 | 1017.5 |
| 20260502062555 | 49 | 53 | 14.0 | 19.0 | 0.00 | 0.85 | 0.00 | 92 | 1017.5 |
| 20260502062052 | 49 | 53 | 16.0 | 19.0 | 0.00 | 0.85 | 0.00 | 92 | 1017.4 |
| 20260502061610 | 49 | 50 | 13.0 | 22.0 | 0.00 | 0.85 | 0.00 | 92 | 1017.4 |
| 20260502061050 | 49 | 42 | 13.0 | 22.0 | 0.00 | 0.85 | 0.00 | 92 | 1017.4 |
| 20260502060549 | 49 | 43 | 15.0 | 21.0 | 0.00 | 0.85 | 0.00 | 92 | 1017.4 |
| 20260502060049 | 49 | 24 | 15.0 | 21.0 | 0.00 | 0.85 | 0.00 | 92 | 1017.5 |
| 20260502055548 | 49 | 30 | 15.0 | 22.0 | 0.00 | 0.85 | 0.00 | 92 | 1017.6 |
| 20260502055047 | 49 | 45 | 14.0 | 22.0 | 0.00 | 0.85 | 0.00 | 92 | 1017.5 |
| 20260502054545 | 49 | 38 | 12.0 | 23.0 | 0.00 | 0.85 | 0.00 | 92 | 1017.5 |
| 20260502054044 | 49 | 37 | 16.0 | 23.0 | 0.00 | 0.85 | 0.00 | 92 | 1017.4 |
| 20260502053543 | 49 | 39 | 15.0 | 26.0 | 0.00 | 0.85 | 0.00 | 92 | 1017.4 |
| 20260502053042 | 49 | 34 | 15.0 | 26.0 | 0.00 | 0.85 | 0.00 | 92 | 1017.4 |
| 20260502052542 | 49 | 42 | 15.0 | 22.0 | 0.00 | 0.85 | 0.00 | 92 | 1017.3 |
| 20260502052041 | 49 | 64 | 16.0 | 22.0 | 0.00 | 0.85 | 0.00 | 92 | 1017.3 |
| 20260502051542 | 49 | 21 | 14.0 | 23.0 | 0.00 | 0.85 | 0.00 | 93 | 1017.1 |
| 20260502051039 | 49 | 21 | 15.0 | 23.0 | 0.00 | 0.85 | 0.00 | 93 | 1017.1 |
| 20260502050538 | 49 | 42 | 14.0 | 22.0 | 0.00 | 0.85 | 0.00 | 93 | 1017.0 |
| 20260502050037 | 49 | 41 | 15.0 | 22.0 | 0.00 | 0.85 | 0.00 | 93 | 1017.1 |
| 20260502045537 | 49 | 44 | 16.0 | 22.0 | 0.00 | 0.87 | 0.85 | 94 | 1017.2 |
| 20260502045036 | 49 | 59 | 12.0 | 24.0 | 0.00 | 0.87 | 0.85 | 94 | 1017.2 |
| 20260502044536 | 49 | 28 | 16.0 | 24.0 | 0.00 | 0.87 | 0.85 | 94 | 1017.0 |
| 20260502044034 | 49 | 30 | 15.0 | 21.0 | 0.00 | 0.87 | 0.85 | 95 | 1017.0 |
| 20260502043534 | 49 | 31 | 13.0 | 21.0 | 0.00 | 0.87 | 0.85 | 95 | 1017.1 |
| 20260502043034 | 49 | 24 | 14.0 | 22.0 | 0.00 | 0.87 | 0.85 | 95 | 1017.1 |
| 20260502042534 | 49 | 50 | 13.0 | 22.0 | 0.00 | 0.87 | 0.85 | 95 | 1017.1 |
| 20260502042033 | 49 | 46 | 15.0 | 22.0 | 0.00 | 0.87 | 0.85 | 95 | 1016.7 |
| 20260502041533 | 49 | 49 | 17.0 | 23.0 | 0.00 | 0.87 | 0.85 | 95 | 1016.4 |
| 20260502041032 | 50 | 38 | 15.0 | 24.0 | 0.00 | 0.87 | 0.85 | 95 | 1016.4 |
| 20260502040536 | 50 | 42 | 16.0 | 24.0 | 0.00 | 0.87 | 0.85 | 94 | 1016.5 |
| 20260502040037 | 50 | 40 | 17.0 | 25.0 | 0.00 | 0.87 | 0.85 | 94 | 1016.5 |
| 20260502035532 | 50 | 49 | 17.0 | 25.0 | 0.00 | 0.87 | 0.85 | 93 | 1016.6 |
| 20260502035031 | 50 | 38 | 15.0 | 22.0 | 0.00 | 0.87 | 0.85 | 93 | 1016.6 |
| 20260502034531 | 50 | 52 | 15.0 | 22.0 | 0.00 | 0.87 | 0.85 | 92 | 1016.7 |
| 20260502034031 | 50 | 58 | 15.0 | 23.0 | 0.00 | 0.87 | 0.85 | 92 | 1016.8 |
| 20260502033529 | 50 | 41 | 16.0 | 23.0 | 0.00 | 0.87 | 0.85 | 92 | 1016.7 |
| 20260502033032 | 50 | 34 | 15.0 | 23.0 | 0.00 | 0.87 | 0.85 | 92 | 1016.6 |
| 20260502032529 | 50 | 59 | 16.0 | 23.0 | 0.00 | 0.87 | 0.85 | 92 | 1016.6 |
| 20260502032029 | 50 | 51 | 14.0 | 23.0 | 0.00 | 0.87 | 0.85 | 92 | 1016.5 |
| 20260502031530 | 50 | 53 | 16.0 | 23.0 | 0.00 | 0.87 | 0.85 | 92 | 1016.4 |
| 20260502031027 | 49 | 42 | 16.0 | 23.0 | 0.00 | 0.87 | 0.85 | 93 | 1016.3 |
| 20260502030526 | 50 | 45 | 15.0 | 25.0 | 0.00 | 0.87 | 0.85 | 93 | 1016.1 |
| 20260502030024 | 49 | 48 | 17.0 | 25.0 | 0.00 | 0.87 | 0.85 | 92 | 1016.1 |
| 20260502025524 | 49 | 61 | 16.0 | 22.0 | 0.00 | 0.87 | 0.85 | 93 | 1016.0 |
| 20260502025023 | 50 | 67 | 15.0 | 23.0 | 0.00 | 0.87 | 0.85 | 93 | 1015.9 |
| 20260502024523 | 50 | 29 | 16.0 | 23.0 | 0.00 | 0.87 | 0.85 | 93 | 1015.8 |
| 20260502024024 | 50 | 38 | 15.0 | 21.0 | 0.00 | 0.87 | 0.85 | 93 | 1015.9 |
| 20260502023521 | 50 | 61 | 15.0 | 23.0 | 0.00 | 0.87 | 0.85 | 93 | 1015.9 |
| 20260502023020 | 50 | 37 | 18.0 | 23.0 | 0.00 | 0.87 | 0.85 | 93 | 1015.6 |
| 20260502022519 | 50 | 42 | 15.0 | 23.0 | 0.00 | 0.87 | 0.85 | 93 | 1015.5 |
| 20260502022018 | 50 | 39 | 16.0 | 27.0 | 0.00 | 0.87 | 0.85 | 93 | 1015.4 |
| 20260502021517 | 50 | 23 | 16.0 | 27.0 | 0.00 | 0.87 | 0.85 | 93 | 1015.4 |
| 20260502021021 | 50 | 44 | 13.0 | 23.0 | 0.00 | 0.87 | 0.85 | 94 | 1015.4 |
| 20260502020526 | 50 | 89 | 12.0 | 20.0 | 0.00 | 0.87 | 0.85 | 93 | 1015.3 |
| 20260502020015 | 51 | 56 | 16.0 | 25.0 | 0.00 | 0.87 | 0.85 | 93 | 1015.1 |
| 20260502015514 | 51 | 38 | 16.0 | 25.0 | 0.00 | 0.87 | 0.85 | 94 | 1015.0 |
| 20260502015012 | 51 | 52 | 18.0 | 23.0 | 0.00 | 0.87 | 0.85 | 94 | 1014.9 |
| 20260502014512 | 51 | 53 | 15.0 | 22.0 | 0.00 | 0.87 | 0.85 | 94 | 1014.8 |
| 20260502014011 | 51 | 52 | 16.0 | 24.0 | 0.00 | 0.87 | 0.85 | 94 | 1014.7 |
| 20260502013510 | 51 | 46 | 16.0 | 24.0 | 0.00 | 0.87 | 0.85 | 94 | 1014.6 |
| 20260502013010 | 51 | 28 | 16.0 | 24.0 | 0.00 | 0.87 | 0.85 | 94 | 1014.5 |
| 20260502012508 | 52 | 26 | 13.0 | 27.0 | 0.00 | 0.87 | 0.85 | 94 | 1014.3 |
| 20260502012009 | 52 | 52 | 19.0 | 27.0 | 0.00 | 0.87 | 0.85 | 94 | 1014.2 |
| 20260502011506 | 52 | 45 | 17.0 | 24.0 | 0.00 | 0.87 | 0.85 | 95 | 1014.2 |
| 20260502011005 | 52 | 47 | 14.0 | 23.0 | 0.00 | 0.87 | 0.85 | 95 | 1014.1 |
| 20260502010504 | 52 | 36 | 16.0 | 25.0 | 0.00 | 0.87 | 0.85 | 95 | 1014.1 |
| 20260502010003 | 52 | 39 | 16.0 | 25.0 | 0.00 | 0.87 | 0.85 | 95 | 1013.9 |
| 20260502005505 | 52 | 49 | 16.0 | 27.0 | 0.00 | 0.87 | 0.85 | 95 | 1013.9 |
| 20260502005003 | 52 | 40 | 18.0 | 31.0 | 0.00 | 0.87 | 0.85 | 94 | 1013.7 |
| 20260502004608 | 53 | 44 | 20.0 | 31.0 | 0.00 | 0.87 | 0.85 | 94 | 1013.5 |
| 20260502004100 | 53 | 40 | 19.0 | 28.0 | 0.00 | 0.87 | 0.85 | 94 | 1013.4 |
| 20260502003557 | 53 | 40 | 19.0 | 28.0 | 0.00 | 0.87 | 0.85 | 94 | 1013.3 |
| 20260502003104 | 53 | 42 | 16.0 | 27.0 | 0.00 | 0.87 | 0.85 | 94 | 1013.3 |
| 20260502002557 | 53 | 49 | 15.0 | 22.0 | 0.00 | 0.87 | 0.85 | 94 | 1013.3 |
| 20260502002055 | 53 | 32 | 14.0 | 20.0 | 0.00 | 0.87 | 0.85 | 95 | 1013.2 |
| 20260502001554 | 53 | 45 | 14.0 | 27.0 | 0.00 | 0.87 | 0.85 | 95 | 1013.1 |
| 20260502001054 | 53 | 41 | 18.0 | 27.0 | 0.00 | 0.87 | 0.85 | 95 | 1013.0 |
| 20260502000551 | 53 | 31 | 16.0 | 25.0 | 0.00 | 0.87 | 0.85 | 95 | 1012.9 |
| 20260502000051 | 53 | 58 | 17.0 | 28.0 | 0.00 | 0.87 | 0.85 | 95 | 1012.6 |
| 20260501235549 | 53 | 52 | 17.0 | 28.0 | 0.00 | 0.87 | 0.85 | 95 | 1012.4 |
| 20260501235047 | 54 | 23 | 18.0 | 22.0 | 0.00 | 0.87 | 0.85 | 95 | 1012.3 |
| 20260501234548 | 54 | 42 | 17.0 | 22.0 | 0.00 | 0.87 | 0.85 | 95 | 1012.1 |
| 20260501234047 | 54 | 24 | 14.0 | 25.0 | 0.00 | 0.87 | 0.85 | 94 | 1012.0 |
| 20260501233546 | 54 | 26 | 17.0 | 27.0 | 0.00 | 0.87 | 0.85 | 94 | 1011.8 |
| 20260501233045 | 55 | 48 | 19.0 | 27.0 | 0.00 | 0.87 | 0.85 | 94 | 1011.8 |
| 20260501232544 | 55 | 29 | 16.0 | 25.0 | 0.00 | 0.87 | 0.85 | 94 | 1011.6 |
| 20260501232044 | 55 | 60 | 18.0 | 29.0 | 0.00 | 0.87 | 0.85 | 94 | 1011.4 |
| 20260501231544 | 55 | 55 | 19.0 | 30.0 | 0.00 | 0.87 | 0.85 | 94 | 1011.3 |
| 20260501231044 | 55 | 37 | 18.0 | 30.0 | 0.00 | 0.87 | 0.85 | 94 | 1011.3 |
| 20260501230544 | 55 | 49 | 18.0 | 27.0 | 0.00 | 0.87 | 0.85 | 95 | 1011.1 |
| 20260501230057 | 55 | 34 | 16.0 | 27.0 | 0.00 | 0.87 | 0.85 | 95 | 1011.1 |
| 20260501225544 | 55 | 40 | 17.0 | 30.0 | 0.00 | 0.87 | 0.85 | 96 | 1010.9 |
| 20260501225043 | 55 | 41 | 20.0 | 30.0 | 0.01 | 0.87 | 0.85 | 95 | 1010.9 |
| 20260501224542 | 55 | 46 | 21.0 | 26.0 | 0.01 | 0.87 | 0.85 | 96 | 1010.7 |
| 20260501224041 | 55 | 34 | 19.0 | 28.0 | 0.01 | 0.87 | 0.85 | 97 | 1010.8 |
| 20260501223541 | 55 | 34 | 20.0 | 28.0 | 0.01 | 0.87 | 0.85 | 97 | 1010.8 |
| 20260501223040 | 55 | 38 | 21.0 | 28.0 | 0.01 | 0.87 | 0.85 | 97 | 1010.7 |
| 20260501222540 | 55 | 50 | 14.0 | 22.0 | 0.01 | 0.87 | 0.85 | 98 | 1010.8 |
| 20260501222039 | 55 | 24 | 15.0 | 24.0 | 0.01 | 0.87 | 0.85 | 98 | 1010.9 |
| 20260501221540 | 55 | 38 | 15.0 | 25.0 | 0.01 | 0.87 | 0.85 | 98 | 1010.9 |
| 20260501221041 | 55 | 33 | 18.0 | 26.0 | 0.01 | 0.87 | 0.85 | 98 | 1010.8 |
| 20260501220540 | 55 | 26 | 18.0 | 25.0 | 0.01 | 0.87 | 0.85 | 98 | 1010.8 |
| 20260501220041 | 55 | 37 | 16.0 | 28.0 | 0.01 | 0.87 | 0.85 | 98 | 1010.9 |
| 20260501215540 | 55 | 48 | 16.0 | 28.0 | 0.01 | 0.87 | 0.85 | 98 | 1010.8 |
| 20260501215035 | 55 | 40 | 15.0 | 24.0 | 0.00 | 0.86 | 0.84 | 97 | 1011.0 |
| 20260501214542 | 55 | 38 | 17.0 | 23.0 | 0.01 | 0.86 | 0.84 | 98 | 1011.1 |
| 20260501214033 | 55 | 38 | 12.0 | 23.0 | 0.01 | 0.86 | 0.84 | 98 | 1011.2 |
| 20260501213532 | 55 | 16 | 18.0 | 23.0 | 0.01 | 0.86 | 0.84 | 98 | 1011.1 |
| 20260501213031 | 55 | 49 | 15.0 | 22.0 | 0.01 | 0.86 | 0.84 | 98 | 1011.2 |
| 20260501212531 | 56 | 9 | 12.0 | 23.0 | 0.01 | 0.86 | 0.84 | 98 | 1011.3 |
| 20260501212031 | 56 | 15 | 17.0 | 23.0 | 0.01 | 0.86 | 0.84 | 98 | 1011.3 |
| 20260501211536 | 56 | 15 | 12.0 | 20.0 | 0.01 | 0.86 | 0.84 | 98 | 1011.4 |
| 20260501211028 | 56 | 30 | 11.0 | 21.0 | 0.01 | 0.86 | 0.84 | 98 | 1011.5 |
| 20260501210528 | 56 | 33 | 14.0 | 21.0 | 0.01 | 0.86 | 0.84 | 98 | 1011.4 |
| 20260501210027 | 56 | 38 | 13.0 | 22.0 | 0.01 | 0.86 | 0.84 | 98 | 1011.4 |
| 20260501205527 | 56 | 24 | 13.0 | 23.0 | 0.01 | 0.86 | 0.84 | 98 | 1011.4 |
| 20260501205025 | 56 | 21 | 15.0 | 23.0 | 0.01 | 0.86 | 0.84 | 98 | 1011.4 |
| 20260501204534 | 56 | 22 | 13.0 | 23.0 | 0.00 | 0.85 | 0.83 | 98 | 1011.6 |
| 20260501204025 | 56 | 11 | 10.0 | 19.0 | 0.00 | 0.85 | 0.83 | 98 | 1011.8 |
| 20260501203523 | 56 | 12 | 14.0 | 19.0 | 0.00 | 0.85 | 0.83 | 98 | 1011.8 |
| 20260501203023 | 57 | 37 | 12.0 | 19.0 | 0.00 | 0.85 | 0.83 | 98 | 1011.7 |
| 20260501202525 | 57 | 15 | 12.0 | 19.0 | 0.00 | 0.85 | 0.83 | 98 | 1011.7 |
| 20260501202023 | 57 | 16 | 13.0 | 19.0 | 0.00 | 0.85 | 0.83 | 98 | 1011.5 |
| 20260501201523 | 57 | 17 | 10.0 | 20.0 | 0.00 | 0.85 | 0.83 | 98 | 1011.6 |
| 20260501201022 | 57 | 22 | 14.0 | 20.0 | 0.02 | 0.85 | 0.83 | 97 | 1011.7 |
| 20260501200522 | 57 | 9 | 12.0 | 20.0 | 0.02 | 0.85 | 0.83 | 98 | 1011.6 |
| 20260501200025 | 57 | 47 | 13.0 | 18.0 | 0.02 | 0.85 | 0.83 | 97 | 1011.8 |
| 20260501195522 | 57 | 9 | 12.0 | 19.0 | 0.02 | 0.85 | 0.83 | 97 | 1011.9 |
| 20260501195022 | 58 | 355 | 14.0 | 20.0 | 0.02 | 0.85 | 0.83 | 97 | 1011.8 |
| 20260501194521 | 58 | 26 | 13.0 | 20.0 | 0.02 | 0.85 | 0.83 | 97 | 1011.8 |
| 20260501194021 | 59 | 9 | 13.0 | 18.0 | 0.02 | 0.85 | 0.83 | 97 | 1011.7 |
| 20260501193522 | 59 | 15 | 10.0 | 17.0 | 0.02 | 0.85 | 0.83 | 97 | 1011.6 |
| 20260501193022 | 59 | 25 | 13.0 | 21.0 | 0.02 | 0.85 | 0.83 | 96 | 1011.6 |
| 20260501192522 | 60 | 9 | 13.0 | 21.0 | 0.02 | 0.85 | 0.83 | 97 | 1011.5 |
| 20260501192020 | 60 | 37 | 6.0 | 13.0 | 0.02 | 0.85 | 0.83 | 97 | 1011.3 |
| 20260501191522 | 60 | 55 | 7.0 | 20.0 | 0.02 | 0.85 | 0.83 | 98 | 1011.1 |
| 20260501191020 | 60 | 17 | 14.0 | 20.0 | 0.00 | 0.83 | 0.81 | 97 | 1010.7 |
| 20260501190524 | 60 | 26 | 12.0 | 17.0 | 0.00 | 0.83 | 0.81 | 98 | 1010.7 |
| 20260501190019 | 59 | 37 | 11.0 | 15.0 | 0.00 | 0.83 | 0.81 | 97 | 1011.1 |
| 20260501185519 | 59 | 24 | 8.0 | 17.0 | 0.00 | 0.83 | 0.81 | 98 | 1011.1 |
| 20260501185021 | 60 | 355 | 11.0 | 20.0 | 0.00 | 0.83 | 0.81 | 98 | 1010.9 |
| 20260501184524 | 60 | 28 | 10.0 | 19.0 | 0.00 | 0.83 | 0.81 | 98 | 1010.6 |
| 20260501184019 | 60 | 17 | 10.0 | 19.0 | 0.00 | 0.83 | 0.81 | 98 | 1010.4 |
| 20260501183519 | 60 | 24 | 9.0 | 17.0 | 0.00 | 0.83 | 0.81 | 99 | 1010.2 |
| 20260501183019 | 60 | 30 | 11.0 | 17.0 | 0.00 | 0.83 | 0.81 | 99 | 1010.1 |
| 20260501182518 | 60 | 55 | 11.0 | 17.0 | 0.00 | 0.83 | 0.81 | 99 | 1010.0 |
| 20260501182019 | 60 | 43 | 12.0 | 18.0 | 0.02 | 0.83 | 0.81 | 99 | 1010.0 |
| 20260501181517 | 60 | 57 | 13.0 | 19.0 | 0.05 | 0.83 | 0.81 | 99 | 1009.9 |
| 20260501181021 | 60 | 94 | 12.0 | 21.0 | 0.05 | 0.83 | 0.81 | 99 | 1009.7 |
| 20260501180518 | 60 | 57 | 13.0 | 22.0 | 0.05 | 0.83 | 0.81 | 100 | 1009.6 |
| 20260501180019 | 60 | 43 | 14.0 | 22.0 | 0.05 | 0.83 | 0.81 | 100 | 1009.4 |
| 20260501175518 | 59 | 81 | 13.0 | 23.0 | 0.05 | 0.83 | 0.81 | 99 | 1009.5 |
| 20260501175022 | 59 | 86 | 15.0 | 23.0 | 0.05 | 0.83 | 0.81 | 99 | 1009.5 |
| 20260501174533 | 59 | 74 | 15.0 | 22.0 | 0.05 | 0.83 | 0.81 | 99 | 1009.6 |
| 20260501174016 | 59 | 76 | 15.0 | 22.0 | 0.06 | 0.83 | 0.81 | 99 | 1009.6 |
| 20260501173516 | 59 | 75 | 12.0 | 19.0 | 0.06 | 0.83 | 0.81 | 100 | 1009.9 |
| 20260501173016 | 59 | 56 | 11.0 | 19.0 | 0.06 | 0.83 | 0.81 | 100 | 1010.0 |
| 20260501172518 | 59 | 71 | 14.0 | 19.0 | 0.06 | 0.82 | 0.80 | 99 | 1010.3 |
| 20260501172016 | 58 | 72 | 3.0 | 8.0 | 0.06 | 0.80 | 0.78 | 99 | 1011.7 |
| 20260501171516 | 58 | 355 | 3.0 | 18.0 | 0.10 | 0.78 | 0.76 | 99 | 1012.1 |
| 20260501171015 | 59 | 44 | 10.0 | 19.0 | 0.11 | 0.78 | 0.76 | 99 | 1011.4 |
| 20260501170515 | 59 | 49 | 12.0 | 19.0 | 0.12 | 0.78 | 0.76 | 99 | 1011.0 |
| 20260501170015 | 60 | 55 | 10.0 | 18.0 | 0.12 | 0.78 | 0.76 | 100 | 1010.9 |
| 20260501165515 | 59 | 49 | 13.0 | 18.0 | 0.12 | 0.78 | 0.76 | 99 | 1011.0 |
| 20260501165015 | 59 | 9 | 10.0 | 16.0 | 0.12 | 0.78 | 0.76 | 100 | 1011.5 |
| 20260501164513 | 59 | 26 | 9.0 | 17.0 | 0.12 | 0.78 | 0.76 | 100 | 1011.6 |
| 20260501164013 | 59 | 15 | 12.0 | 17.0 | 0.11 | 0.77 | 0.75 | 100 | 1011.7 |
| 20260501163514 | 58 | 44 | 10.0 | 14.0 | 0.11 | 0.77 | 0.75 | 99 | 1011.9 |
| 20260501163013 | 58 | 11 | 9.0 | 12.0 | 0.11 | 0.77 | 0.75 | 99 | 1012.4 |
| 20260501162513 | 58 | 333 | 5.0 | 11.0 | 0.10 | 0.76 | 0.74 | 99 | 1012.8 |
| 20260501162018 | 58 | 342 | 6.0 | 11.0 | 0.08 | 0.74 | 0.72 | 99 | 1012.4 |
| 20260501161512 | 58 | 324 | 5.0 | 12.0 | 0.02 | 0.68 | 0.66 | 99 | 1012.4 |
| 20260501161012 | 58 | 32 | 6.0 | 14.0 | 0.01 | 0.67 | 0.65 | 99 | 1012.0 |
| 20260501160514 | 58 | 30 | 5.0 | 18.0 | 0.00 | 0.66 | 0.64 | 99 | 1011.4 |
| 20260501160013 | 58 | 108 | 11.0 | 18.0 | 0.00 | 0.66 | 0.64 | 99 | 1010.5 |
| 20260501155513 | 58 | 49 | 13.0 | 21.0 | 0.00 | 0.66 | 0.64 | 99 | 1009.7 |
| 20260501155015 | 58 | 63 | 15.0 | 21.0 | 0.00 | 0.66 | 0.64 | 99 | 1009.9 |
| 20260501154612 | 58 | 51 | 12.0 | 22.0 | 0.00 | 0.66 | 0.64 | 99 | 1009.8 |
| 20260501154011 | 58 | 48 | 12.0 | 22.0 | 0.00 | 0.66 | 0.64 | 99 | 1010.2 |
| 20260501153512 | 58 | 78 | 16.0 | 22.0 | 0.00 | 0.66 | 0.64 | 100 | 1010.4 |
| 20260501153012 | 59 | 59 | 16.0 | 22.0 | 0.00 | 0.66 | 0.64 | 100 | 1010.5 |